Theta_e
307 308 311 310 310 296 302 305 298 300 308 305 300 302 302 303 299 299 309 307 311 317 320 322 323 324 325 327 328 330 331 333 334 334 336 337 340 341 343 343 343 346 345 346 349 348 347 348 347 345 348 347 347 350 350 351 353 353 355 358 357 358 356
306 309 310 310 311 310 304 299 301 307 309 308 303 295 299 296 291 298 307 303 305 306 302 319 319 320 322 324 326 328 328 329 330 331 333 335 337 340 343 346 346 348 346 345 347 350 350 350 349 351 351 350 352 353 351 351 353 351 353 356 358 357 357
305 310 307 305 310 312 303 302 309 299 296 295 304 299 291 291 292 298 303 306 306 307 305 313 313 317 319 320 322 323 324 327 329 331 331 335 337 340 341 343 344 346 348 350 348 348 348 352 352 350 354 353 353 355 354 354 353 353 353 356 357 358 357
304 305 302 295 300 307 309 307 303 306 301 301 297 300 299 297 295 298 298 300 297 311 310 316 315 316 317 319 320 320 322 325 328 331 332 334 336 336 338 341 342 343 344 347 349 347 345 346 347 350 351 350 347 353 357 355 356 355 356 355 357 356 356
302 295 298 296 298 298 297 297 296 300 304 304 300 302 297 295 297 296 294 293 301 310 316 316 318 318 319 320 319 321 322 324 326 327 327 328 331 336 336 339 338 337 338 341 351 354 352 350 352 350 349 348 347 348 355 356 357 357 357 356 357 358 356
294 296 302 303 303 302 299 297 296 297 297 295 292 291 301 299 299 294 295 293 302 313 319 319 321 320 320 321 321 321 322 324 325 326 327 328 329 335 339 338 336 336 337 339 343 352 353 351 350 349 349 349 348 347 351 354 358 358 354 353 353 356 358
296 300 304 306 306 305 303 301 298 302 300 300 296 286 294 305 305 308 303 298 301 317 323 319 320 320 321 321 322 321 322 323 324 326 328 329 330 331 332 335 336 335 336 337 338 341 348 352 354 351 350 350 352 349 351 354 353 355 357 355 353 354 354
302 304 305 306 306 305 301 301 302 300 297 300 300 298 302 302 305 301 300 296 302 318 320 322 321 320 321 322 322 322 322 323 323 324 328 328 328 329 330 331 332 332 333 335 335 336 337 339 340 343 345 345 346 347 346 346 348 351 356 356 354 352 352
291 295 298 299 302 302 299 297 300 302 303 304 301 301 304 300 305 304 299 293 301 313 319 320 318 320 320 320 322 322 321 322 322 323 324 326 328 328 328 328 329 330 331 331 332 334 335 338 339 340 344 346 347 350 351 350 351 351 352 351 353 353 351
285 286 286 288 291 294 298 301 301 302 304 302 301 295 298 291 302 305 301 301 307 312 315 315 317 318 320 321 321 322 322 322 322 323 323 324 326 326 326 326 327 327 329 331 333 334 335 337 338 338 339 342 346 346 349 353 352 350 353 353 354 353 354
292 294 296 303 304 298 294 298 300 301 303 302 302 300 299 295 303 302 304 304 304 308 310 312 313 315 316 317 319 319 320 321 322 322 323 323 324 325 325 325 326 327 327 328 332 334 335 337 338 339 340 341 341 343 347 349 351 353 355 353 353 351 354
300 299 300 299 301 297 297 297 298 301 300 300 299 296 297 306 304 295 306 306 305 306 309 311 312 312 313 314 316 319 320 320 321 321 323 326 324 325 325 325 325 325 326 327 328 330 335 338 338 340 341 342 343 343 343 345 348 348 351 353 353 353 353
301 302 300 300 300 299 298 298 298 299 302 300 298 302 303 305 300 299 306 307 306 307 310 311 312 313 313 314 315 317 320 321 322 321 322 322 322 323 324 325 326 325 326 326 327 328 331 334 335 338 339 339 341 342 344 344 344 347 349 351 351 351 351
298 300 300 300 299 298 299 298 299 299 299 298 301 302 304 310 307 309 309 308 308 310 311 312 313 315 315 315 316 317 318 318 318 319 319 320 321 321 321 323 324 324 325 328 327 328 329 331 334 336 338 339 340 341 342 344 344 347 350 350 350 350 350
296 298 300 300 299 298 296 297 298 298 298 297 298 301 312 313 310 310 309 307 307 314 315 314 315 315 316 316 315 315 316 317 318 317 318 319 319 320 320 321 322 324 324 325 328 327 327 329 333 337 337 337 338 340 342 343 344 345 347 346 347 348 348
293 297 298 298 298 298 297 296 297 298 298 296 298 299 311 310 307 308 307 304 305 311 314 314 314 314 314 313 314 316 316 317 318 317 317 318 318 318 319 320 321 322 322 323 324 324 325 325 326 330 333 335 337 337 339 341 344 344 343 343 343 343 344
292 296 298 297 297 296 293 293 295 298 300 300 298 300 310 313 311 306 303 303 309 311 314 311 312 314 313 312 312 313 315 316 316 316 316 317 318 318 318 318 319 319 321 322 324 324 324 324 324 326 328 329 331 336 336 336 337 337 338 340 340 341 343
292 296 297 298 294 286 286 301 301 300 297 298 296 299 310 313 313 309 311 310 312 312 312 311 311 312 312 313 315 316 314 313 314 314 315 316 317 317 317 317 317 317 318 320 322 324 323 325 327 327 328 328 328 334 336 335 334 334 334 335 337 340 341
290 295 296 291 285 287 302 303 304 305 303 301 303 306 309 312 313 312 310 311 311 313 313 314 314 313 314 314 314 315 315 315 314 313 314 315 317 317 317 317 317 317 318 320 321 321 322 324 326 327 327 327 327 327 331 331 332 332 333 333 334 335 339
294 290 291 282 287 299 302 302 303 307 308 308 308 307 311 313 312 312 310 311 312 313 313 313 314 314 314 315 316 316 316 316 313 313 312 313 315 315 316 316 317 317 318 320 322 321 323 321 321 326 326 328 327 326 327 330 329 330 330 330 331 333 332
288 290 289 290 299 298 300 300 304 302 303 304 303 298 304 312 313 312 311 311 313 314 313 315 314 314 313 310 309 314 313 314 315 314 313 314 314 316 316 317 317 320 319 320 323 323 320 320 323 325 327 328 328 327 326 328 329 329 329 328 329 330 330
294 289 287 290 289 287 294 304 308 308 307 310 310 305 301 313 314 315 312 310 311 313 313 313 312 313 309 305 306 311 312 313 313 314 314 314 314 315 315 315 316 320 320 320 321 320 319 320 323 325 326 326 326 326 327 327 328 328 328 328 329 330 329
294 291 286 285 285 291 301 302 309 308 306 309 309 302 296 307 313 314 313 311 311 312 312 312 312 309 304 303 306 309 311 312 313 312 312 313 314 314 313 313 315 319 321 322 321 321 320 320 321 323 323 324 325 325 327 327 328 327 327 328 329 329 329
293 292 287 285 293 293 302 303 305 306 307 307 301 289 292 307 312 313 313 311 312 313 314 312 310 307 303 303 307 311 312 313 314 313 312 313 313 313 314 316 318 320 321 318 318 318 320 320 322 323 324 324 327 326 325 328 328 328 329 330 331 331 331
292 295 290 293 296 303 307 305 305 305 309 303 290 284 294 309 311 313 313 311 312 313 312 311 305 310 309 309 311 313 313 312 312 313 314 314 314 313 315 319 323 316 316 317 316 317 318 320 321 323 324 324 324 325 325 325 326 329 330 331 332 331 331
289 290 288 290 296 304 304 304 305 305 303 287 288 298 310 309 310 311 311 309 311 311 310 308 307 308 311 313 312 311 311 310 311 313 314 314 314 315 321 322 320 315 315 315 315 316 317 319 321 321 322 324 324 324 323 323 323 327 331 330 331 330 330
292 293 290 286 282 299 311 302 301 306 297 298 306 307 309 309 307 308 308 309 309 310 308 310 309 309 310 310 310 310 310 311 312 312 312 312 312 313 313 313 316 316 313 313 314 315 318 319 320 320 321 321 322 321 321 321 324 326 327 330 331 331 330
288 287 286 285 297 303 310 304 297 306 307 309 312 307 303 308 308 307 308 309 309 309 308 307 307 307 308 309 309 309 310 311 311 312 312 312 312 312 313 314 314 317 312 314 314 316 318 319 319 320 319 319 321 321 321 322 325 326 326 326 328 331 331
296 291 294 299 306 306 309 309 308 309 311 312 312 309 307 306 307 310 308 308 308 308 307 306 306 306 308 308 309 308 309 309 310 310 310 311 311 312 312 312 316 314 312 312 314 315 316 317 318 319 319 318 320 320 320 324 326 326 326 327 327 329 328
308 308 307 307 307 307 308 310 310 309 310 312 311 310 307 309 309 310 308 308 308 308 307 305 305 307 307 307 307 308 309 309 310 311 310 310 311 311 311 311 313 313 313 313 313 314 314 315 316 318 317 318 317 319 321 324 321 323 325 325 326 326 327
296 291 306 308 307 307 308 308 309 309 310 309 310 309 309 309 311 311 312 310 309 309 309 307 306 306 307 307 308 308 308 308 308 308 309 310 310 310 310 312 314 313 314 313 313 313 314 315 315 316 316 317 317 319 320 321 321 323 323 326 326 325 323
297 300 305 308 308 308 308 307 306 305 306 309 311 311 310 310 311 312 311 311 309 309 307 307 306 307 308 307 307 308 308 307 308 309 309 309 310 310 311 313 313 312 312 311 313 314 314 314 315 316 317 317 317 318 319 321 321 322 324 325 324 322 322
300 307 305 307 307 309 307 310 308 307 307 308 309 310 310 309 308 308 309 310 308 309 307 309 308 307 307 308 307 307 307 308 309 309 309 309 308 309 310 312 312 311 313 313 313 314 313 314 315 316 316 318 319 319 319 319 321 322 323 325 325 323 322
296 297 301 306 300 297 305 309 310 308 310 310 309 309 308 308 308 307 306 307 310 310 311 309 308 306 307 307 307 307 307 306 307 308 308 308 308 310 311 311 313 313 314 314 313 313 312 313 314 315 315 317 320 322 322 322 321 320 323 323 322 321 322
295 303 308 309 308 308 308 308 311 310 310 310 308 308 307 308 308 308 307 305 306 308 309 309 308 307 308 307 307 307 306 308 309 308 307 308 308 309 309 310 311 313 313 314 313 313 312 314 313 314 314 316 320 320 322 322 322 322 322 322 322 322 324
306 309 309 312 309 306 307 309 311 309 310 309 308 309 309 308 308 308 308 306 305 306 307 308 309 309 307 307 307 305 307 307 308 308 307 309 308 310 309 310 312 312 313 314 313 312 312 313 312 313 314 317 317 318 319 320 321 322 322 322 321 321 322
303 309 310 311 310 311 311 311 310 313 312 311 308 307 308 307 308 308 307 307 308 307 306 307 307 308 307 308 307 307 305 305 308 309 312 312 309 310 311 311 310 310 310 311 311 311 313 313 312 313 314 316 316 316 317 317 318 319 321 321 320 321 322
Wind_Speed
5 8 4 7 4 4 3 4 6 5 5 4 1 4 8 2 3 6 3 7 10 8 10 4 3 10 11 9 10 11 11 11 10 8 6 4 3 3 3 5 5 6 9 3 2 3 4 4 3 4 5 10 12 14 14 13 12 11 9 9 10 8 8
6 2 3 6 9 1 3 6 4 6 3 2 3 3 1 1 4 2 6 14 10 10 8 6 7 11 10 9 10 13 12 9 7 6 6 5 5 5 4 5 5 4 4 6 3 3 3 3 3 1 4 5 8 11 14 13 12 13 10 10 9 9 8
4 1 3 6 6 7 2 2 1 1 2 5 1 2 3 2 4 6 3 4 7 2 7 8 13 14 13 12 12 14 13 10 7 6 6 5 5 4 4 5 5 5 4 4 4 4 3 6 4 1 1 1 5 9 11 13 14 14 14 10 9 8 8
4 2 3 2 3 4 2 6 7 2 1 0 1 2 1 5 5 6 2 2 4 2 5 4 16 12 12 14 12 12 12 12 9 7 5 2 3 4 4 6 5 6 6 3 2 3 6 8 7 2 2 2 3 8 11 11 11 11 10 10 9 9 9
2 4 1 2 3 0 2 2 4 5 1 1 1 2 5 4 7 4 7 2 1 3 7 2 5 12 11 12 12 10 9 10 10 9 8 6 3 2 3 7 8 8 7 8 1 0 1 3 4 4 3 4 5 3 11 12 12 11 11 11 10 10 9
3 1 3 3 7 3 1 2 5 5 3 3 4 6 4 4 9 9 8 3 2 3 3 7 4 10 11 12 14 11 11 11 9 8 9 6 5 7 4 7 8 7 9 9 8 5 3 4 3 2 2 3 6 6 6 9 10 11 12 10 7 5 8
3 7 9 11 9 8 4 1 4 5 4 2 2 3 4 10 5 8 9 11 3 4 4 6 9 10 12 12 12 12 11 10 9 8 8 6 8 11 10 10 8 8 8 8 8 9 8 4 3 1 3 4 9 12 11 7 3 3 1 7 7 6 5
5 9 14 8 9 2 5 3 5 6 4 5 1 4 4 6 7 9 3 5 3 4 5 5 8 11 13 12 13 13 11 10 9 8 8 10 10 9 10 10 9 9 9 8 10 11 10 10 10 10 9 9 10 10 7 8 9 7 2 3 7 6 6
6 9 7 5 5 4 1 3 6 7 3 5 3 4 2 6 5 11 8 9 3 4 9 8 9 14 15 15 14 13 11 10 11 10 9 8 8 8 10 10 9 10 11 10 9 9 9 9 10 10 11 11 8 7 8 5 4 5 5 4 4 2 5
2 2 2 2 2 5 4 5 9 9 0 8 6 5 5 8 3 7 8 6 5 14 13 13 9 9 8 16 15 11 11 10 10 10 9 7 8 8 8 8 9 10 8 7 8 9 8 9 10 10 10 11 11 8 8 3 7 5 2 1 3 3 3
2 2 5 4 4 3 3 8 11 7 5 6 5 5 6 5 6 7 9 18 9 7 13 12 11 13 14 16 14 13 11 10 10 10 10 9 8 8 8 7 7 7 9 9 8 9 8 9 10 9 9 10 11 9 9 9 7 4 4 6 7 8 8
4 6 4 8 9 2 6 12 10 5 7 9 7 5 5 7 11 5 3 17 17 13 12 14 13 10 10 10 13 13 11 11 10 11 12 12 11 10 8 8 8 8 8 8 8 8 8 8 8 8 8 9 9 8 8 9 10 9 7 8 10 10 7
3 8 6 4 6 8 10 13 13 7 1 7 3 1 5 4 7 10 10 8 14 11 12 13 12 11 11 11 9 10 13 12 10 10 13 14 13 11 9 8 7 6 7 8 8 7 8 8 9 7 7 8 8 8 8 9 9 7 5 5 10 11 10
9 8 8 5 8 8 4 10 6 8 10 7 1 1 7 11 7 14 15 12 11 10 13 13 13 10 11 11 9 10 12 12 11 13 12 12 12 12 11 10 9 8 7 7 9 9 8 9 7 8 6 6 7 6 7 8 7 7 6 6 8 9 10
7 12 4 3 5 5 6 5 6 7 8 5 6 5 15 16 15 13 15 13 10 5 8 9 7 10 11 10 10 11 9 10 12 12 12 11 11 11 10 9 10 9 9 8 7 8 8 6 6 4 5 7 8 8 7 8 8 7 7 6 8 10 12
3 5 6 3 2 8 4 3 7 2 1 4 2 2 9 12 10 14 14 12 10 7 10 11 11 11 12 11 8 6 8 12 12 12 12 11 11 10 9 9 8 8 9 9 8 9 10 7 5 4 3 3 5 7 8 9 8 6 6 6 8 9 10
2 5 10 9 4 2 2 4 6 5 1 1 5 4 9 18 18 14 10 6 7 9 10 13 8 11 13 12 12 12 12 11 12 11 11 10 10 9 9 8 7 7 7 7 7 8 8 8 7 7 7 8 9 9 10 10 8 8 7 7 7 9 8
2 6 7 10 2 2 3 2 5 4 5 3 4 3 16 12 9 7 10 13 12 11 9 11 11 11 10 9 8 9 8 9 11 11 10 10 10 9 9 7 6 4 5 5 6 6 6 7 8 8 7 9 8 8 11 10 10 8 7 8 7 8 8
2 6 7 5 3 3 2 6 4 10 5 2 8 11 8 13 16 16 13 12 11 8 7 6 10 12 11 11 11 9 9 10 11 11 10 9 10 10 8 6 5 4 4 4 5 7 8 6 5 7 9 9 9 8 7 11 10 8 8 9 9 7 6
2 3 1 1 2 4 6 5 5 7 14 12 18 13 12 11 15 16 16 12 9 7 10 10 10 11 10 7 6 7 6 7 10 10 10 10 10 10 8 7 4 4 4 4 5 7 5 6 5 5 7 8 9 9 8 10 10 9 9 9 8 6 4
2 3 2 3 1 3 3 3 2 3 3 4 9 9 5 10 8 12 13 12 11 11 11 10 10 10 9 7 4 4 9 6 9 13 11 10 8 9 8 7 5 3 4 4 5 5 7 8 9 7 7 7 8 8 8 8 9 9 8 8 8 6 5
3 1 1 0 1 2 2 1 3 1 7 12 9 10 5 5 8 8 12 13 12 12 11 11 11 10 9 7 4 4 8 9 11 11 11 10 9 9 8 6 5 3 4 5 6 8 8 8 8 8 9 8 6 6 7 7 8 7 7 7 6 6 7
2 1 2 1 1 2 1 4 2 3 6 9 10 7 2 1 8 8 11 11 13 14 13 12 11 8 8 6 6 4 7 8 11 10 10 9 9 10 8 5 4 5 5 6 6 8 9 9 8 8 8 7 7 6 6 6 6 6 6 5 5 6 6
3 2 2 3 0 0 1 5 5 7 6 6 5 5 5 5 9 8 6 10 14 11 9 10 7 6 8 7 6 6 6 9 10 11 9 8 8 8 7 6 5 6 7 8 9 10 10 8 8 8 6 6 5 5 6 4 5 4 4 4 4 4 6
4 4 3 0 1 1 2 5 5 5 4 4 5 4 4 8 8 10 9 8 13 14 13 7 5 2 4 5 9 8 8 11 10 9 8 8 8 7 7 9 8 7 8 8 8 8 7 7 7 6 5 5 5 5 5 5 6 3 3 3 3 3 5
4 2 4 1 0 0 3 7 7 3 4 3 2 3 2 4 4 8 13 9 4 7 8 8 7 7 9 9 8 11 12 9 9 9 9 9 9 7 8 10 7 7 7 7 7 7 7 8 7 6 6 5 5 5 5 6 6 6 3 2 2 3 3
2 2 1 3 1 2 2 7 5 4 4 2 2 3 5 11 14 15 11 10 10 12 10 9 9 8 7 9 9 9 10 11 11 10 9 9 8 8 8 10 10 8 6 6 6 5 5 6 5 6 6 6 5 5 4 6 6 5 6 4 1 2 2
2 2 2 1 2 3 4 4 3 0 3 3 1 4 10 10 10 10 10 7 8 8 11 12 11 10 10 9 9 9 10 10 9 9 9 9 8 8 9 10 7 7 7 7 6 5 4 4 4 4 4 4 4 5 4 5 4 4 5 5 4 1 2
2 0 2 5 1 7 7 9 6 5 5 4 4 6 7 9 8 7 10 10 10 11 11 10 8 8 7 8 8 9 10 10 9 9 9 8 7 7 8 7 5 5 5 5 5 6 6 7 7 6 5 4 4 4 5 5 5 5 5 5 6 4 0
1 2 1 4 4 7 9 7 7 6 5 5 5 6 7 6 7 7 9 8 9 9 8 9 6 7 8 8 8 10 9 9 8 8 7 6 5 7 6 5 4 3 3 3 4 5 6 6 6 6 7 7 6 5 5 4 6 5 5 5 5 6 5
2 1 1 2 4 8 7 8 6 6 5 6 7 10 8 8 7 8 8 9 8 7 8 8 7 8 7 11 9 8 8 9 7 7 6 6 7 6 4 3 1 1 1 2 3 4 3 4 4 5 6 6 6 6 6 6 4 4 4 4 5 4 6
2 3 2 4 6 3 6 9 7 6 7 7 8 7 8 9 9 8 8 8 8 7 7 5 7 8 8 9 7 7 8 7 6 5 6 6 5 4 1 1 1 2 1 3 3 2 3 4 5 5 6 6 5 6 7 6 4 3 4 4 4 4 6
6 3 10 8 12 6 3 4 7 9 8 8 8 9 9 10 8 6 6 6 4 5 6 4 5 8 7 7 7 8 6 5 5 5 6 5 5 2 0 0 1 3 3 4 4 4 5 4 4 5 6 7 7 7 6 6 4 3 3 3 4 5 6
1 1 0 5 2 2 10 5 3 6 7 10 10 8 9 7 7 6 6 5 5 7 6 6 7 8 7 7 6 6 5 4 4 5 5 4 4 2 2 3 2 2 2 4 4 4 4 4 5 5 6 6 6 8 8 8 5 4 3 2 3 4 6
4 1 2 3 1 4 4 5 1 10 7 9 9 9 8 8 8 7 7 6 4 6 5 5 4 4 6 7 6 5 4 4 5 7 5 4 3 4 3 1 0 3 4 5 4 4 4 4 4 5 6 6 6 8 7 8 10 8 7 5 5 4 5
0 0 1 2 0 0 3 5 4 5 7 9 9 7 8 9 8 6 6 7 5 5 7 6 6 5 5 6 7 7 5 5 5 4 4 5 4 1 1 1 3 5 4 4 3 4 4 4 4 4 6 7 8 8 7 9 9 8 7 6 5 5 5
2 2 2 1 0 4 3 4 5 2 4 6 6 7 6 8 8 6 5 7 7 7 5 5 5 3 3 3 6 6 6 5 4 5 5 3 2 1 1 5 5 4 4 3 4 3 3 4 4 4 6 7 8 9 9 9 9 8 7 6 5 4 3
Wind_Direction
150 186 205 218 213 248 228 183 234 223 192 203 184 191 204 156 167 52 154 96 97 105 63 59 196 133 118 113 108 93 86 74 69 76 64 70 38 33 117 132 139 147 140 207 139 124 120 137 186 171 131 165 166 165 170 171 171 174 172 175 177 178 183
93 238 237 279 278 141 198 213 245 299 254 111 88 348 349 156 151 133 162 135 136 145 136 170 209 123 107 102 99 92 84 86 90 91 82 42 14 355 41 70 79 68 122 146 143 110 89 98 143 130 140 145 161 168 169 169 170 175 178 175 175 178 176
151 141 254 275 266 266 218 122 326 132 245 264 140 107 264 158 102 110 63 60 122 12 146 184 154 130 121 96 80 83 81 77 80 86 68 29 340 343 71 78 62 54 32 43 77 124 123 61 346 349 12 137 135 169 173 172 175 178 179 179 177 176 177
108 234 105 219 248 263 328 18 312 212 108 187 24 205 212 104 127 134 154 259 275 4 5 207 132 119 105 94 86 79 76 77 74 71 77 77 319 346 37 66 70 54 31 29 91 120 143 148 185 198 210 210 190 167 173 180 178 176 170 176 174 179 183
111 242 86 180 252 256 52 319 318 316 263 96 228 235 225 146 146 121 138 94 275 308 136 347 45 99 100 100 95 85 78 76 70 65 66 51 15 200 37 63 54 34 22 8 46 66 69 165 151 173 186 198 209 195 173 177 175 172 174 176 177 182 180
186 10 152 263 258 266 297 158 221 248 251 245 230 280 246 174 129 146 129 111 51 181 198 130 86 97 98 96 98 94 89 83 69 62 62 45 47 53 87 86 62 43 30 17 18 25 44 56 78 116 215 207 205 214 169 181 174 174 173 175 176 186 183
180 186 180 207 240 238 253 130 252 224 234 221 225 225 314 36 24 90 122 117 157 136 109 147 148 131 117 111 101 96 90 79 76 64 59 58 49 56 46 58 60 50 41 32 24 28 33 54 5 287 249 15 28 12 1 8 17 30 97 178 174 156 165
270 201 188 203 194 37 357 287 269 272 235 212 219 134 155 108 124 99 86 64 132 327 171 227 130 127 118 114 115 112 105 103 89 76 63 53 52 53 51 52 53 51 41 35 33 29 29 28 30 31 48 74 74 76 48 358 1 11 333 241 168 155 143
336 356 25 8 18 7 294 272 266 251 260 51 157 118 115 101 160 129 110 131 148 192 166 208 132 133 130 118 112 113 114 109 100 87 75 63 62 55 53 50 48 52 45 36 38 37 30 29 34 39 41 48 47 63 107 131 48 32 335 350 322 127 129
24 13 75 28 314 285 310 296 295 283 358 50 27 50 25 76 33 108 105 88 130 158 154 132 116 97 113 119 122 120 112 108 111 107 96 85 74 66 59 60 55 52 52 44 36 41 41 37 33 31 34 43 52 30 16 34 108 103 323 328 316 26 99
97 210 219 241 266 261 220 263 258 251 44 55 123 122 87 112 150 122 153 140 162 166 149 122 138 145 134 122 119 119 119 116 112 101 94 85 75 68 63 59 63 63 59 54 49 50 48 49 46 40 30 38 44 27 26 19 1 45 86 83 65 13 8
347 291 336 5 336 41 359 331 283 44 30 44 25 56 125 145 99 81 145 148 149 165 138 138 136 124 108 102 114 126 125 126 121 119 112 97 79 65 53 55 54 64 71 66 58 51 58 62 60 52 45 48 45 51 43 22 20 2 356 55 70 61 41
240 273 321 309 317 30 7 337 318 332 48 76 23 17 150 142 135 151 160 152 138 147 137 135 124 127 124 127 124 120 125 129 134 125 115 112 107 99 82 62 51 54 76 90 82 70 63 67 66 64 56 53 45 36 47 50 46 21 327 32 74 75 62
0 298 264 331 347 16 353 352 28 38 25 19 27 8 55 103 116 130 136 137 127 123 118 121 127 127 116 110 111 108 106 110 107 96 88 87 83 82 81 71 54 48 49 78 82 72 62 60 69 77 82 80 75 65 46 49 49 35 13 25 67 81 79
348 322 37 337 10 325 328 326 355 39 27 331 2 38 109 106 114 120 120 110 103 104 117 112 109 107 104 104 100 102 101 93 90 93 93 87 79 71 67 70 64 43 36 45 76 72 64 67 56 46 81 120 126 115 110 83 60 52 38 36 45 60 66
328 311 325 301 261 269 308 343 316 42 70 329 333 69 118 112 125 120 113 116 125 119 107 105 112 110 110 107 107 105 107 99 92 83 83 87 88 79 65 51 46 46 36 31 45 76 76 54 47 32 35 66 109 108 98 94 95 88 69 53 53 59 69
255 275 283 282 247 293 304 258 252 284 347 5 358 340 127 133 131 127 134 137 130 130 126 123 120 114 102 90 86 87 91 95 96 92 85 83 83 87 77 61 49 35 24 15 22 48 58 54 45 29 26 29 45 74 74 73 71 65 62 60 65 62 61
293 307 313 322 287 218 234 39 21 341 260 163 275 82 114 133 123 127 135 135 136 131 131 128 129 114 110 110 100 100 106 108 105 103 101 96 93 83 78 73 59 33 16 9 10 50 57 52 48 36 23 30 32 71 88 79 69 58 52 49 55 63 61
302 328 341 334 253 215 33 30 22 353 285 108 71 93 103 114 111 113 111 121 127 126 116 112 109 105 106 106 111 108 111 112 113 113 106 101 102 99 91 77 56 31 8 4 10 46 43 35 45 43 32 29 24 31 67 77 68 56 47 43 40 46 62
333 345 74 12 205 297 46 20 6 359 47 80 87 68 89 105 122 125 130 132 117 97 111 113 107 111 111 105 113 123 128 117 117 109 104 96 95 105 104 95 72 31 1 359 31 60 47 27 21 53 54 40 31 25 38 66 64 52 44 42 37 32 38
187 207 225 215 357 334 57 43 9 11 68 71 96 122 103 121 130 131 131 128 115 110 114 120 120 115 107 89 66 66 47 29 107 102 102 104 99 105 106 101 95 48 2 11 55 63 44 27 25 34 54 51 43 29 29 55 59 52 44 37 28 18 10
202 253 310 33 46 234 232 175 152 138 105 127 119 101 105 138 138 137 130 135 141 141 148 140 126 124 110 115 144 126 100 94 98 93 90 88 88 87 87 83 83 64 24 26 48 58 42 34 42 42 37 40 38 36 32 47 59 57 49 40 22 11 358
335 223 222 247 199 247 196 180 91 59 46 102 107 81 84 208 148 154 149 145 131 143 147 138 139 138 144 161 180 163 125 95 81 74 68 64 74 80 70 67 71 55 43 36 53 54 39 37 42 41 35 34 30 23 22 30 58 58 54 45 30 10 352
254 277 220 245 2 211 242 116 90 86 87 89 77 96 211 197 149 156 151 129 134 131 121 125 131 150 159 173 175 153 126 105 91 84 76 62 54 62 64 48 53 60 45 36 43 45 40 37 37 37 27 27 27 23 15 18 54 62 61 51 35 3 349
253 244 268 330 7 304 86 91 88 80 61 69 102 183 212 171 156 151 147 126 128 138 152 159 112 106 120 98 110 119 93 97 95 97 99 88 74 61 56 55 42 43 44 43 42 39 37 35 29 31 25 29 27 17 11 25 21 33 86 75 62 22 353
236 225 236 248 195 271 98 46 50 36 70 95 192 229 268 132 77 66 69 67 132 115 113 107 105 112 110 109 100 96 96 91 87 86 76 69 62 53 59 56 46 39 38 38 32 32 34 30 22 19 21 32 24 18 20 22 4 348 12 22 81 51 32
277 311 289 83 199 258 145 103 42 14 105 213 297 330 24 82 108 112 106 101 104 111 113 110 114 112 87 73 79 81 77 79 81 77 76 72 65 51 45 44 32 27 35 26 27 29 27 26 21 24 22 22 11 9 10 12 342 346 347 336 37 101 65
260 185 219 198 272 358 19 94 135 11 112 180 52 67 72 68 81 88 98 88 93 87 92 96 91 87 87 82 77 71 73 81 82 78 73 68 60 54 55 52 34 20 17 8 12 13 15 13 22 27 37 18 4 349 5 336 332 336 331 339 321 163 103
68 230 262 253 32 84 73 85 93 78 52 45 73 82 91 92 81 82 93 98 89 89 91 92 100 103 101 105 98 91 86 80 75 73 70 67 65 71 66 53 36 28 17 2 355 6 8 12 10 4 12 16 356 357 342 334 343 343 346 346 347 331 169
209 355 33 90 108 87 78 74 76 77 55 45 43 64 69 79 110 109 107 108 101 92 100 103 79 93 110 106 89 87 90 90 81 81 78 69 65 62 64 66 41 31 360 358 13 26 8 8 12 10 6 4 354 349 331 345 346 340 353 347 341 330 325
73 226 279 298 136 119 114 98 82 72 61 55 62 69 68 77 88 92 94 100 97 94 82 92 107 103 99 89 88 90 89 87 87 85 88 85 77 68 61 57 54 7 292 21 36 33 9 11 15 15 3 355 347 339 339 330 319 338 337 328 325 329 322
347 221 244 355 318 103 124 127 130 109 76 61 61 78 84 78 75 88 97 93 93 95 79 70 85 85 83 101 109 104 98 98 100 100 95 92 85 96 95 75 1 313 319 79 51 32 31 27 17 12 0 346 333 325 317 312 310 319 313 316 315 311 312
291 23 17 360 358 338 175 148 133 132 130 105 92 86 77 82 77 61 55 89 106 94 117 107 93 97 95 95 94 93 103 104 106 108 106 107 117 125 139 186 115 72 44 48 36 38 45 24 23 13 357 339 331 319 302 296 305 307 299 306 308 299 298
18 239 300 19 61 293 302 15 104 118 118 113 116 113 113 110 103 90 75 55 71 87 100 89 89 102 111 108 100 101 101 119 127 111 103 108 102 78 87 56 23 76 71 63 54 45 41 31 24 12 349 329 340 348 353 337 317 308 312 323 327 328 308
194 163 53 34 329 227 239 303 142 139 131 133 140 144 142 137 133 133 119 104 96 109 107 96 94 110 123 130 131 132 158 157 129 120 117 107 115 100 44 3 77 67 67 62 51 44 37 30 24 12 351 346 359 360 8 10 6 4 3 0 350 332 7
317 41 144 166 235 282 271 305 341 148 155 154 162 159 156 143 142 143 134 137 135 115 129 142 161 162 157 152 151 162 152 123 103 109 121 119 107 103 169 166 87 70 68 73 64 45 30 37 17 24 3 14 2 3 7 17 2 1 3 9 12 5 17
212 246 266 262 206 305 306 321 344 347 162 144 141 144 137 134 132 133 147 154 142 140 137 169 185 140 146 184 153 139 126 128 135 120 101 93 97 148 112 92 83 77 62 63 59 55 55 45 17 21 15 19 8 10 10 11 2 358 358 358 357 354 6